This is the latest recevied weather packets stored in our database for station/object KC5EZZ-2. If no packets are shown the sender has not sent any weather packets the latest 1 day(s).
| Time | Temp. | Humidity | Pressure | Rain* | Wind** | Luminosity | Snow |
|---|---|---|---|---|---|---|---|
| 1778000963 | 31.11° C | - | - | 0 mm | 2.68 m/s, 191° | - | - |
| 1778000663 | 30.56° C | - | - | 0 mm | 2.68 m/s, 232° | - | - |
| 1778000360 | 30.56° C | - | - | 0 mm | 2.24 m/s, 253° | - | - |
| 1778000134 | 29.44° C | - | - | 0 mm | 3.58 m/s, 236° | - | - |
| 1778000061 | 29.44° C | - | - | 0 mm | 3.58 m/s, 236° | - | - |
| 1777999761 | 28.89° C | - | - | 0 mm | 3.58 m/s, 211° | - | - |
| 1777999519 | 28.89° C | - | - | 0 mm | 4.47 m/s, 203° | - | - |
| 1777999459 | 28.89° C | - | - | 0 mm | 4.47 m/s, 203° | - | - |
| 1777999159 | 28.33° C | - | - | 0 mm | 3.58 m/s, 222° | - | - |
| 1777998860 | 28.33° C | - | - | 0 mm | 5.36 m/s, 232° | - | - |
| 1777998557 | 28.33° C | - | - | 0 mm | 3.13 m/s, 205° | - | - |
| 1777998257 | 27.78° C | - | - | 0 mm | 4.02 m/s, 197° | - | - |
| 1777997958 | 27.78° C | - | - | 0 mm | 3.58 m/s, 197° | - | - |
| 1777997655 | 26.67° C | - | - | 0 mm | 4.92 m/s, 225° | - | - |
| 1777997355 | 26.67° C | - | - | 0 mm | 4.92 m/s, 194° | - | - |
| 1777997055 | 26.67° C | - | - | 0 mm | 4.92 m/s, 218° | - | - |
| 1777996753 | 26.67° C | - | - | 0 mm | 4.02 m/s, 195° | - | - |
| 1777996452 | 26.11° C | - | - | 0 mm | 1.79 m/s, 184° | - | - |
| 1777996152 | 26.11° C | - | - | 0 mm | 5.36 m/s, 210° | - | - |
| 1777995850 | 25.56° C | - | - | 0 mm | 3.13 m/s, 198° | - | - |
| 1777995550 | 25.56° C | - | - | 0 mm | 4.92 m/s, 163° | - | - |
| 1777995312 | 26.11° C | - | - | 0 mm | 4.02 m/s, 170° | - | - |
| 1777995251 | 26.11° C | - | - | 0 mm | 4.02 m/s, 170° | - | - |
| 1777994948 | 26.11° C | - | - | 0 mm | 4.02 m/s, 198° | - | - |
| 1777994648 | 26.11° C | - | - | 0 mm | 3.13 m/s, 180° | - | - |
* Rain latest hour (hover to see other rain measurements)
** Current wind speed in m/s (hover to see current wind gust speed)